Leadville, CO

3:55 PM MST on February 12, 2016 (GMT -0700)
Lake County

Weather History for KLXV - February, 2013

Change the Weather History Date:

Sunday, February 24, 2013

  Actual Average Record
Temperature  
Mean Temperature 9 °F -  
Max Temperature 19 °F 33 °F 48 °F (1989)
Min Temperature -1 °F 6 °F -7 °F (1987)
Degree Days  
Heating Degree Days 56 45  
Month to date heating degree days 1221 1132  
Since 1 July heating degree days 7311 7529  
Cooling Degree Days 0 0  
Month to date cooling degree days 0 0  
Year to date cooling degree days 0 0  
Moisture  
Dew Point 4 °F    
Average Humidity 70    
Maximum Humidity 88    
Minimum Humidity 51    
Precipitation  
Precipitation 0.24 in 0.03 in 0.58 in (2008)
Month to date precipitation 0.91 0.59  
Year to date precipitation 1.58 1.21  
Sea Level Pressure  
Sea Level Pressure 29.69 in    
Wind  
Wind Speed 8 mph (North)    
Max Wind Speed 20 mph    
Max Gust Speed 24 mph    
Visibility 4 miles    
Events Fog , Snow    
T = Trace of Precipitation, MM = Missing Value Source: NWS Daily Summary

Daily Weather History Graph

Daily Weather History Graph

Search for Another Location

Airport or City:

Trip Planner

Search our weather history database for the weather conditions in past years. The results will help you decide how hot, cold, wet, or windy it might be!

Date:

Astronomy

Feb. 24, 2013 Rise Set
Actual Time 6:44 AM MST 5:52 PM MST
Civil Twilight 6:17 AM MST 6:19 PM MST
Nautical Twilight 5:46 AM MST 6:50 PM MST
Astronomical Twilight 5:15 AM MST 7:21 PM MST
Moon 5:06 PM MST (2/24) 5:43 AM MST (2/24)
Length of Visible Light 12h 02m
Length of Day
11h 08m
Waxing Gibbous, 99% of the Moon is Illuminated
Feb 24
Waxing Gibbous
Feb 25
Full
Mar 4
Last Quarter
Mar 11
New
Mar 19
First Quarter

Hourly Weather History & Observations

Time (MST) Temp. Windchill Dew Point Humidity Pressure Visibility Wind Dir Wind Speed Gust Speed Precip Events Conditions
12:53 AM 9.0 °F - 5.0 °F 84% 29.52 in 10.0 mi Calm Calm - N/A   Scattered Clouds
1:53 AM 9.0 °F 0.6 °F 5.0 °F 84% 29.52 in 10.0 mi ENE 4.6 mph - N/A   Overcast
2:32 AM 12.2 °F 6.1 °F 8.6 °F 85% 29.56 in 1.8 mi SE 3.5 mph - 0.00 in Snow Light Snow
2:53 AM 10.0 °F - 7.0 °F 87% 29.49 in 1.5 mi Calm Calm - 0.01 in Snow Light Snow
3:06 AM 10.4 °F 4.0 °F 6.8 °F 85% 29.55 in 3.0 mi NE 3.5 mph - 0.00 in Snow Light Snow
3:53 AM 9.0 °F 0.6 °F 6.1 °F 88% 29.48 in 5.0 mi NNE 4.6 mph - 0.00 in Snow Light Snow
4:10 AM 10.4 °F -0.4 °F 6.8 °F 85% 29.54 in 5.0 mi NE 6.9 mph - 0.00 in Snow Light Snow
4:25 AM 10.4 °F -1.5 °F 6.8 °F 85% 29.55 in 10.0 mi NNW 8.1 mph - 0.00 in   Overcast
4:53 AM 10.0 °F -1.9 °F 5.0 °F 80% 29.51 in 2.5 mi NW 8.1 mph - 0.00 in Snow Light Snow
5:06 AM 8.6 °F -6.3 °F 3.2 °F 79% 29.56 in 5.0 mi NW 11.5 mph - 0.00 in Snow Light Snow
5:41 AM 8.6 °F -7.7 °F 1.4 °F 73% 29.58 in 1.8 mi NW 13.8 mph 20.7 mph 0.00 in Snow Light Snow
5:53 AM 8.1 °F -8.4 °F 3.0 °F 80% 29.56 in 1.2 mi NW 13.8 mph 21.9 mph 0.01 in Snow Light Snow
6:01 AM 8.6 °F -9.5 °F 1.4 °F 73% 29.58 in 1.0 mi NW 17.3 mph 24.2 mph 0.00 in Snow Light Snow
6:03 AM 8.6 °F -10.0 °F 1.4 °F 73% 29.58 in 0.8 mi NW 18.4 mph 24.2 mph 0.00 in Snow Light Snow
6:53 AM 7.0 °F -6.6 °F 3.0 °F 84% 29.62 in 0.5 mi NNW 9.2 mph - 0.03 in Fog , Snow Snow
7:19 AM 6.8 °F -8.6 °F 3.2 °F 85% 29.62 in 0.2 mi NW 11.5 mph - 0.04 in Fog , Snow Snow
7:36 AM 6.8 °F -5.9 °F 3.2 °F 85% 29.62 in 0.5 mi NW 8.1 mph 17.3 mph 0.07 in Fog , Snow Snow
7:53 AM 7.0 °F -7.5 °F 3.9 °F 87% 29.66 in 0.5 mi NW 10.4 mph - 0.10 in Fog , Snow Snow
8:09 AM 6.8 °F -4.8 °F 3.2 °F 85% 29.63 in 0.2 mi NW 6.9 mph - 0.01 in Fog , Snow Snow
8:34 AM 8.6 °F -3.7 °F 3.2 °F 79% 29.63 in 0.5 mi NW 8.1 mph - 0.04 in Fog , Snow Snow
8:53 AM 8.1 °F -7.0 °F 3.9 °F 83% 29.68 in 0.5 mi NNW 11.5 mph - 0.05 in Fog , Snow Snow
9:06 AM 8.6 °F -5.5 °F 3.2 °F 79% 29.64 in 0.5 mi NNW 10.4 mph - 0.00 in Fog , Snow Light Snow
9:45 AM 8.6 °F -6.3 °F 3.2 °F 79% 29.65 in 1.0 mi NNW 11.5 mph 17.3 mph 0.01 in Snow Light Snow
9:53 AM 10.0 °F -5.9 °F 3.9 °F 76% 29.68 in 1.0 mi NNW 13.8 mph 19.6 mph 0.01 in Snow Light Snow
10:03 AM 10.4 °F -6.0 °F 3.2 °F 73% 29.65 in 1.5 mi NNW 15.0 mph 20.7 mph 0.01 in Snow Light Snow
10:10 AM 10.4 °F -6.6 °F 3.2 °F 73% 29.65 in 3.0 mi North 16.1 mph 20.7 mph 0.01 in Snow Light Snow
10:38 AM 10.4 °F -3.3 °F 3.2 °F 73% 29.65 in 10.0 mi NNW 10.4 mph 19.6 mph 0.01 in   Overcast
10:53 AM 10.9 °F -4.7 °F 3.9 °F 73% 29.68 in 7.0 mi NNW 13.8 mph 19.6 mph 0.01 in   Overcast
11:12 AM 10.4 °F -6.0 °F 3.2 °F 73% 29.66 in 8.0 mi NNW 15.0 mph 21.9 mph 0.00 in   Overcast
11:25 AM 12.2 °F -1.0 °F 5.0 °F 73% 29.66 in 10.0 mi NNW 10.4 mph 18.4 mph 0.00 in   Overcast
11:44 AM 12.2 °F 0.7 °F 5.0 °F 73% 29.67 in 1.8 mi North 8.1 mph - 0.00 in Snow Light Snow
11:53 AM 14.0 °F 2.9 °F 5.0 °F 67% 29.68 in 2.0 mi North 8.1 mph - 0.00 in Snow Light Snow
12:04 PM 14.0 °F 2.0 °F 5.0 °F 67% 29.67 in 3.0 mi NNW 9.2 mph - 0.00 in Snow Light Snow
12:15 PM 15.8 °F 8.6 °F 6.8 °F 68% 29.67 in 2.5 mi North 4.6 mph - 0.00 in Snow Light Snow
12:25 PM 15.8 °F 7.2 °F 6.8 °F 68% 29.67 in 1.5 mi NNW 5.8 mph - 0.00 in Snow Light Snow
12:38 PM 15.8 °F - 6.8 °F 68% 29.67 in 2.5 mi Calm Calm - 0.01 in Snow Light Snow
12:53 PM 16.0 °F 4.4 °F 6.1 °F 65% 29.70 in 2.5 mi ENE 9.2 mph 16.1 mph 0.01 in Snow Light Snow
1:15 PM 17.6 °F 7.3 °F 6.8 °F 63% 29.68 in 4.0 mi NE 8.1 mph - 0.00 in Snow Light Snow
1:43 PM 17.6 °F 5.0 °F 8.6 °F 68% 29.68 in 2.5 mi NNE 11.5 mph - 0.00 in Snow Light Snow
1:50 PM 15.8 °F 5.1 °F 10.4 °F 79% 29.69 in 1.0 mi NNW 8.1 mph - 0.00 in Snow Light Snow
1:53 PM 16.0 °F 3.6 °F 9.0 °F 74% 29.72 in 0.8 mi North 10.4 mph - 0.00 in Snow Light Snow
2:20 PM 15.8 °F - 10.4 °F 79% 29.70 in 1.5 mi Calm Calm - 0.01 in Snow Light Snow
2:25 PM 17.6 °F - 8.6 °F 68% 29.70 in 3.0 mi Calm Calm - 0.01 in Snow Light Snow
2:42 PM 17.6 °F 10.7 °F 5.0 °F 58% 29.71 in 1.8 mi NE 4.6 mph - 0.01 in Snow Light Snow
2:45 PM 15.8 °F 6.1 °F 6.8 °F 68% 29.71 in 0.8 mi NE 6.9 mph - 0.01 in Snow Light Snow
2:53 PM 16.0 °F 8.8 °F 8.1 °F 71% 29.74 in 0.5 mi NNE 4.6 mph - 0.01 in Snow Snow
3:03 PM 17.6 °F - 8.6 °F 68% 29.72 in 1.0 mi Calm Calm - 0.00 in Snow Light Snow
3:22 PM 15.8 °F 4.2 °F 8.6 °F 73% 29.73 in 0.8 mi North 9.2 mph - 0.00 in Snow Light Snow
3:29 PM 15.8 °F 7.2 °F 6.8 °F 68% 29.73 in 2.0 mi North 5.8 mph - 0.00 in Snow Light Snow
3:38 PM 15.8 °F 8.6 °F 3.2 °F 58% 29.74 in 5.0 mi Variable 4.6 mph - 0.00 in Snow Light Snow
3:53 PM 16.0 °F 2.9 °F 1.0 °F 52% 29.78 in 10.0 mi NNE 11.5 mph 16.1 mph 0.00 in   Overcast
4:53 PM 15.1 °F 1.1 °F -0.9 °F 49% 29.82 in 10.0 mi North 12.7 mph - N/A   Scattered Clouds
5:53 PM 10.9 °F 1.4 °F -0.9 °F 59% 29.90 in 10.0 mi NE 5.8 mph - N/A   Mostly Cloudy
6:53 PM 5.0 °F -4.1 °F -0.9 °F 76% 29.99 in 10.0 mi NE 4.6 mph - N/A   Clear
7:53 PM 3.0 °F -6.4 °F -2.9 °F 76% 30.02 in 10.0 mi North 4.6 mph - N/A   Clear
8:53 PM 1.9 °F - -2.9 °F 80% 30.04 in 10.0 mi Calm Calm - N/A   Overcast
9:53 PM 5.0 °F -2.1 °F -0.0 °F 80% 30.01 in 10.0 mi NE 3.5 mph - N/A   Overcast
10:53 PM 1.9 °F -7.6 °F -2.0 °F 83% 30.02 in 10.0 mi NW 4.6 mph - N/A   Clear
11:53 PM -0.0 °F -7.9 °F -4.0 °F 83% 30.03 in 10.0 mi Variable 3.5 mph - N/A   Clear